DW2465 Weather Reports


time (UTC)temp
C
wind
direction
speed
KPH
gust
KPH
rain 1hr
cm
rain 24hr
cm
rain mn
cm
humidity
%
barometer
mb
20260902033041 22 344 0.0 0.0 0.00 0.00 0.00 69 1010.7
20260902031541 22 323 0.0 0.0 0.00 0.00 0.00 69 1011.2
20260902030041 22 324 0.0 0.0 0.00 0.00 0.00 68 1011.4
20260902024509 23 324 0.0 0.0 0.00 0.00 0.00 67 1011.3
20260902023008 23 324 0.0 0.0 0.00 0.00 0.00 70 1011.0
20260902021507 23 323 0.0 0.0 0.00 0.00 0.00 68 1011.0
20260902020006 24 307 0.0 0.0 0.00 0.00 0.00 65 1011.0
20260902014512 24 296 0.0 0.0 0.00 0.00 0.00 66 1011.1
20260902013004 24 290 0.0 0.0 0.00 0.00 0.00 66 1011.0
20260902011504 24 290 0.0 0.0 0.00 0.00 0.00 66 1010.9
20260902010002 24 290 0.0 0.0 0.00 0.00 0.00 65 1010.9
20260902004603 25 288 0.0 0.0 0.00 0.00 0.00 66 1010.8
20260902004501 25 289 0.0 0.0 0.00 0.00 0.00 66 1010.9
20260902003133 25 289 0.0 0.0 0.00 0.00 0.00 64 1010.9
20260902001559 25 289 0.0 0.0 0.00 0.00 0.00 62 1010.8
20260902000100 26 289 0.0 0.0 0.00 0.00 0.00 60 1010.8
20260901234556 26 286 0.0 0.0 0.00 0.00 0.00 59 1011.0
20260901233056 26 285 0.0 0.0 0.00 0.00 0.00 59 1011.0
20260901231600 26 282 0.0 0.0 0.00 0.00 0.00 58 1011.1
20260901230053 26 281 0.0 0.0 0.00 0.00 0.00 58 1011.1
20260901224552 27 280 0.0 0.0 0.00 0.00 0.00 58 1011.1
20260901223051 27 280 0.0 0.0 0.00 0.00 0.00 54 1011.0
20260901221548 27 280 0.0 0.0 0.00 0.00 0.00 53 1010.9
20260901220048 27 277 0.0 0.0 0.00 0.00 0.00 55 1010.9
20260901214546 28 265 0.0 0.0 0.00 0.00 0.00 52 1011.0
20260901213046 28 263 0.0 0.0 0.00 0.00 0.00 49 1011.0
20260901211546 28 271 0.0 0.0 0.00 0.00 0.00 47 1010.8
20260901210015 28 278 0.0 0.0 0.00 0.00 0.00 49 1010.9
20260901204515 28 281 0.0 0.0 0.00 0.00 0.00 45 1010.8
20260901203044 28 281 0.0 0.0 0.00 0.00 0.00 41 1010.7
20260901201541 30 248 0.0 0.0 0.00 0.00 0.00 40 1011.2
20260901200010 30 244 0.0 0.0 0.00 0.00 0.00 45 1011.1
20260901194508 29 303 0.0 0.0 0.00 0.00 0.00 45 1011.4
20260901193005 28 259 0.0 0.0 0.00 0.00 0.00 46 1011.5
20260901191614 28 263 0.0 0.0 0.00 0.00 0.00 47 1011.5
20260901190134 28 327 0.0 0.0 0.00 0.00 0.00 48 1011.6
20260901184559 28 330 0.0 0.0 0.00 0.00 0.00 46 1011.5
20260901183059 28 325 0.0 0.0 0.00 0.00 0.00 49 1011.5
20260901181558 28 327 0.0 0.0 0.00 0.00 0.00 50 1011.6
20260901180055 28 258 0.0 0.0 0.00 0.00 0.00 51 1012.0
20260901174556 27 110 0.0 0.0 0.00 0.00 0.00 53 1012.3
20260901173051 27 154 0.0 0.0 0.00 0.00 0.00 55 1012.4
20260901171559 27 205 0.0 0.0 0.00 0.00 0.00 53 1012.5
20260901170045 27 350 0.0 0.0 0.00 0.00 0.00 57 1012.6
20260901164550 26 339 0.0 0.0 0.00 0.00 0.00 58 1012.5
20260901163100 26 300 0.0 0.0 0.00 0.00 0.00 60 1012.6
20260901161536 26 298 0.0 0.0 0.00 0.00 0.00 62 1012.5
20260901160033 25 321 0.0 0.0 0.00 0.00 0.00 64 1012.4
20260901154545 25 321 0.0 0.0 0.00 0.00 0.00 64 1012.4
20260901153036 24 311 0.0 0.0 0.00 0.00 0.00 66 1012.4
20260901151523 23 275 0.0 0.0 0.00 0.00 0.00 66 1012.5
20260901150021 23 266 0.0 0.0 0.00 0.00 0.00 67 1012.5
20260901144521 23 270 0.0 0.0 0.00 0.00 0.00 68 1012.5
20260901143045 22 264 0.0 0.0 0.00 0.00 0.00 75 1012.6
20260901141541 21 264 0.0 0.0 0.00 0.00 0.00 76 1012.7
20260901140035 21 242 0.0 0.0 0.00 0.00 0.00 79 1012.7
20260901134535 20 232 0.0 0.0 0.00 0.00 0.00 83 1012.7
20260901133035 19 236 0.0 0.0 0.00 0.00 0.00 88 1012.9
20260901131534 18 238 0.0 0.0 0.00 0.00 0.00 90 1012.8
20260901130029 18 248 0.0 0.0 0.00 0.00 0.00 91 1012.5
20260901124529 18 248 0.0 0.0 0.00 0.00 0.00 93 1012.5
20260901123028 17 257 0.0 0.0 0.00 0.00 0.00 94 1012.6
20260901121535 17 256 0.0 0.0 0.00 0.00 0.00 94 1012.3
20260901120023 17 249 0.0 0.0 0.00 0.00 0.00 93 1012.2
20260901114524 17 246 0.0 0.0 0.00 0.00 0.00 93 1012.1
20260901113021 17 244 0.0 0.0 0.00 0.00 0.00 93 1011.9
20260901111520 17 221 0.0 0.0 0.00 0.00 0.00 93 1011.9
20260901110015 17 283 0.0 0.0 0.00 0.00 0.00 93 1011.7
20260901104526 17 286 0.0 0.0 0.00 0.00 0.00 93 1011.7
20260901103017 17 290 0.0 0.0 0.00 0.00 0.00 93 1011.3
20260901101514 17 290 0.0 0.0 0.00 0.00 0.00 93 1011.3
20260901100011 17 290 0.0 0.0 0.00 0.00 0.00 93 1011.3
20260901094513 18 290 0.0 0.0 0.00 0.00 0.00 93 1011.1
20260901093007 18 290 0.0 0.0 0.00 0.00 0.00 93 1011.0
20260901091512 18 290 0.0 0.0 0.00 0.00 0.00 93 1010.9
20260901090006 17 290 0.0 0.0 0.00 0.00 0.00 92 1011.0
20260901084506 18 290 0.0 0.0 0.00 0.00 0.00 92 1010.9
20260901083002 18 290 0.0 0.0 0.00 0.00 0.00 92 1011.2
20260901081501 18 290 0.0 0.0 0.00 0.00 0.00 91 1010.9
20260901080112 18 290 0.0 0.0 0.00 0.00 0.00 90 1010.9
20260901074528 18 290 0.0 0.0 0.00 0.00 0.00 90 1011.1
20260901073030 18 290 0.0 0.0 0.00 0.00 0.00 90 1011.1
20260901071524 18 290 0.0 0.0 0.00 0.00 0.00 89 1011.4
20260901070028 18 290 0.0 0.0 0.00 0.00 0.00 89 1011.4
20260901064524 18 290 0.0 0.0 0.00 0.00 0.00 88 1011.3
20260901063020 19 290 0.0 0.0 0.00 0.00 0.00 87 1011.5
20260901061515 20 290 0.0 0.0 0.00 0.00 0.00 85 1011.6
20260901060016 20 290 0.0 0.0 0.00 0.00 0.00 84 1011.5
20260901054509 20 290 0.0 0.0 0.00 0.00 0.00 82 1011.4
20260901053007 20 290 0.0 0.0 0.00 0.00 0.00 81 1011.3
20260901051501 21 298 0.0 0.0 0.00 0.00 0.00 80 1011.2
20260901050059 21 288 0.0 0.0 0.00 0.00 0.00 80 1010.8
20260901044558 21 289 0.0 0.0 0.00 0.00 0.00 80 1010.8
20260901043057 21 291 0.0 0.0 0.00 0.00 0.00 82 1010.7
20260901041554 20 246 0.0 0.0 0.00 0.00 0.00 83 1010.6
20260901040054 20 246 0.0 0.0 0.00 0.00 0.00 84 1010.7
20260901034553 20 242 0.0 0.0 0.00 0.00 0.00 84 1010.6